Regional Weather Roundup
Issued by NWS Upton, NY

Current Version | Previous Version | Graphics & Text | Print | Product List | Glossary Off
Versions: 1 2 3 4 5 6 7 8 9 10 11 12 13 14 15 16 17 18 19 20 21 22 23 24 25 26 27 28 29 30 31 32 33 34 35 36 37 38 39 40 41 42 43 44 45 46 47 48 49 50
000 ASUS41 KOKX 061005 RWROKX REGIONAL WEATHER ROUNDUP NATIONAL WEATHER SERVICE NEW YORK NY 500 AM EST FRI MAR 06 2015 NOTE: "FAIR" INDICATES FEW OR NO CLOUDS BELOW 12,000 FEET WITH NO SIGNIFICANT WEATHER AND/OR OBSTRUCTIONS TO VISIBILITY. NYZ071-072-176-178-NJZ106-104-061100- NEW YORK CITY METRO AREA CITY SKY/WX TMP DP RH WIND PRES REMARKS CENTRAL PARK CLEAR 13 1 59 VRB3 30.50R LAGUARDIA APRT CLEAR 16 3 56 N8 30.48R WCI 5 KENNEDY INTL CLEAR 14 0 53 N12 30.49R WCI 0 NEWARK/LIBERTY CLEAR 13 1 59 N12 30.49R WCI -1 BRNX BOT. GARD N/A N/A N/A N/A NW6 30.49R TETERBORO CLEAR 12 0 58 N6 30.48R WCI 3 $$ NYZ177-179-078>081-061100- LONG ISLAND NEW YORK CITY SKY/WX TMP DP RH WIND PRES REMARKS FARMINGDALE CLEAR 14 2 58 N9 30.47R WCI 2 ISLIP CLEAR 13 0 56 N9 30.45R WCI 1 SHIRLEY CLEAR 13 -1 54 N10 30.47R WCI 0 WESTHAMPTON CLEAR 12 0 58 N7 30.46R WCI 1 MONTAUK POINT N/A 17 2 51 N13 30.44R WCI 4 $$ NYZ052-065-067-061100- HUDSON VALLEY CITY SKY/WX TMP DP RH WIND PRES REMARKS WHITE PLAINS CLEAR 6 -2 69 CALM 30.43R NEWBURGH CLEAR 3 -4 72 CALM 30.45R MONTGOMERY CLEAR 3 -4 72 CALM 30.44R POUGHKEEPSIE CLEAR 2 -4 76 CALM 30.48R ALBANY CLEAR 2 -7 66 CALM 30.48R $$ NJZ001-105-106-008-010-013-015-019>022-104-061100- NEW JERSEY CITY SKY/WX TMP DP RH WIND PRES REMARKS NEWARK/LIBERTY CLEAR 13 1 59 N12 30.49R WCI -1 TETERBORO CLEAR 12 0 58 N6 30.48R WCI 3 CALDWELL CLEAR 8 0 69 CALM 30.49R MORRISTOWN CLEAR 12 1 62 CALM 30.48R SOMERVILLE PTCLDY 10 0 63 N5 30.48R WCI 2 SUSSEX CLEAR 9 -1 64 NW10 30.45R WCI -5 ANDOVER N/A 8 -1 66 N8 30.45R WCI -4 TRENTON PTCLDY 10 0 63 N7 30.48R WCI -1 MILLVILLE CLEAR 11 32 100 N8 30.48R WCI -1 ATLANTIC CITY NOT AVBL WRIGHTSTOWN NOT AVBL TOMS RIVER CLEAR 10 7 85 N7 30.48R WCI 0 BELMAR CLEAR 9 0 66 NW6 30.46R WCI -1 $$ PAZ047>061-062-071-061100- EASTERN PENNSYLVANIA CITY SKY/WX TMP DP RH WIND PRES REMARKS PHILADELPHIA CLEAR 13 2 61 N10 30.52R WCI 0 ALLENTOWN PTCLDY 5 -4 66 CALM 30.49R SCRANTON PTCLDY 6 -4 63 NW7 30.44R WCI -6 $$ CTZ002-004>006-009-010-012-RIZ004-006-007-MAZ004-011-015-061100- SOUTHERN NEW ENGLAND IN CT CITY SKY/WX TMP DP RH WIND PRES REMARKS BRADLEY INTL CLEAR 10 -6 48 N5 30.45R WCI 2 HARTFORD CLEAR 11 -4 51 N8 30.47R WCI -1 DANBURY CLEAR 9 -2 61 N6 30.44R WCI -1 WTRBRY/OXFORD CLEAR 7 -9 47 N9 30.40R WCI -7 BRIDGEPORT FAIR 11 -1 58 N7 30.47R WCI 0 MERIDEN CLEAR 11 -4 51 N6 30.46R WCI 1 NEW HAVEN CLEAR 11 -4 51 N9 30.46R WCI -2 CHESTER FAIR 12 0 57 N12G17 30.41R WCI -2 GROTON CLEAR 9 0 67 N5 30.44R WCI 1 WILLIMANTIC CLEAR 8 -4 58 NW3 30.44R IN RI CITY SKY/WX TMP DP RH WIND PRES REMARKS PROVIDENCE CLEAR 11 -6 46 N12 30.43R WCI -3 BLOCK ISLAND CLEAR 16 0 48 N14G20 30.40R WCI 1 WESTERLY CLEAR 11 0 61 N8 30.44R WCI -1 IN MA CITY SKY/WX TMP DP RH WIND PRES REMARKS BOSTON PTCLDY 10 -7 46 N9 30.44R WCI -3 WORCESTER CLEAR 6 -9 50 N7 30.34R WCI -6 WESTFIELD CLEAR 7 -7 52 NW5 30.44R WCI -2 PROVINCETOWN CLEAR 19 7 58 N15G25 30.39R WCI 5 NANTUCKET CLEAR 19 9 65 N14G24 30.36R WCI 6 $$ ANZ330-335-338-340-345-350-353-355-061100- COASTAL MARINE OBSERVATIONS STATION/POSITION TIME SKY/WX TEMP WIND PRES VSBY WAVE AIR SEA DIR/SP/G HT/PER (UTC) (F) (DEG/KT/KT) (MB) (MI) (FT/S) NY HARB ENTRANCE 1000 19 37 10/ 16/ 19 1031.5 3/ 4 4S FIRE IS NOT AVBL 20S FIRE ISLAND 0900 36 1030.2 5/ 5 23SW MTP 1000 N/A 4/ 4 HUDSON CANYON NOT AVBL EXECUTION ROCKS NOT AVBL WESTERN LI SOUND NOT AVBL CENTRAL LI SOUND NOT AVBL EASTERN LI SOUND NOT AVBL ROBBINS REEF 0900 15 360/ 13/ 17 1030.6 $$ >>>>>>>>>>>>>>>>>>>>>>>>>>>> KEY <<<<<<<<<<<<<<<<<<<<<<<<<<< > < > SKY/WX - SKY CONDITION/PRESENT WEATHER < > TMP - TEMPERATURE IN FAHRENHEIT < > DP - DEWPOINT IN FAHRENHEIT < > RH - RELATIVE HUMIDITY IN PERCENT < > WIND - DIRECTION AND SPEED IN MPH < > PRES - MEAN SEA LEVEL PRESSURE IN INCHES OF HG < > WCI - WIND CHILL INDEX < > VSB - VISIBILITY IN MILES < > HX - HEAT INDEX < > TC - TEMPERATURE IN CELSIUS < > VRB - VARIABLE WIND DIRECTION < > < >>>>>>>>>>>>>>>>>>>>>>>>>>>> KEY <<<<<<<<<<<<<<<<<<<<<<<<<<<

USA.gov is the U.S. government's official web portal to all federal, state and local government web resources and services.